IRIDIUM 33 DEB, 34648

Orbit data source: Space-Track

IRIDIUM 33 DEB, 34648 is space debris in LEO originally from a launch on Sun, 14 Sep 1997 UTC launched from the Tyuratam Missile And Space Complex (TTMTR). The debris from Iridium 33, an American commercial communications satellite, has been tracked extensively since its accidental collision with the defunct Russian satellite Cosmos 2251 in 2009. This event, occurring at high speed in low Earth orbit (LEO), generated thousands of pieces of space debris, significantly increasing the risk of further collisions. The Iridium 33 debris cloud has impacted space traffic management and orbital debris mitigation strategies, making it a subject of ongoing study in space situational awareness.

Loading next visibility...
Identifier
34648, 1997-051JZ
Orbit
LEO
Country
Flag of USUS
Related business
Manufacturer
Unknown
Mission
Spacecraft
Bus & Motor
Unknown
Mass
Unknown
Launch date (UTC)
1997-09-14 (29 years ago)
Launch vehicle
Unknown
Launch site
Tyuratam Missile And Space Complex (TTMTR)
Object type
Payload
Rocket body
Debris
Shape & HBR
Unknown shape, 0.057 m
Radar Cross Section
Medium (>0.1 m² and <1 m²)

Expand to show TLE details & history
Last TLE update: 21 hours ago

TLE from 21 hours ago
0 IRIDIUM 33 DEB
1 34648U 97051JZ  26266.17878556  .00001755  00000-0  78085-3 0  9995
2 34648  86.3989 166.8011 0166915 119.9336 241.8544 14.15188341889800
Epoch: 2026-09-23T04:17Z
TLE epoch observation values (Epoch: 2026-09-23T04:17:27.072Z)
Latitude
0.00002°
Longitude
100.40467°
Altitude
903.101 km
Speed
7.37 km/s
True Right ascension
11h 07m 12s
True Declination
0° 00' 00"
Sunlit
Object was in daylight at epoch
Visualization orbit readout
Latitude
Unknown
Longitude
Unknown
Altitude
Unknown
Speed
Unknown
Apparent Right ascension
Unknown
Apparent Declination
Unknown
Sunlit
N/A
Visualization observer readout
Local Sidereal Time
18:35:34
Azimuth
Unknown
Elevation
Unknown
Doppler factor
Unknown
Orbital elements
Apogee altitude
959.121 km
Perigee altitude
718.202 km
Semi-major axis
7,216.799 km
Eccentricity
0.01669
Inclination
86.3989°
RAAN
166.8011°
Arg. of periapsis
119.9336°
True anomaly
240.18455°
Mean anomaly
241.8544°
Eccentric anomaly
241.01781°
Mean motion
3.54019 °/min
Orbital period
101.69 mins
BSTAR
0.00078085

Documentation

Showing up to 5 results
|